Temperature
14 15 15 16 19 21 22 23 22 21 22 21 21 22 23 24 23 22 17 17 16 16 16 17 17 17 17 17 17 17 17 17 16 16 16 16 16 16 16 16 16 16 16 16 16 16 16 16 16
14 14 15 17 20 21 22 22 22 22 21 19 19 20 21 21 18 17 16 16 16 16 16 16 16 16 16 16 17 17 16 16 16 16 16 16 16 16 16 16 16 16 16 16 16 16 16 15 15
13 14 16 19 20 22 23 22 22 20 19 19 19 20 20 19 17 16 16 16 16 16 16 16 16 16 16 16 16 16 16 16 16 16 16 16 16 16 16 16 16 15 15 15 15 15 15 15 15
13 14 17 19 20 21 22 21 20 20 18 18 19 20 18 16 16 15 16 16 15 15 15 16 16 16 16 16 16 16 16 16 16 16 16 16 16 16 16 16 15 15 15 15 15 15 15 15 15
13 16 18 18 20 20 20 20 19 20 20 19 19 20 18 15 15 16 16 15 15 15 15 16 16 16 16 16 16 16 16 16 16 16 15 15 15 15 15 15 15 15 15 15 15 15 15 15 15
14 17 18 19 20 20 20 18 19 20 20 19 19 19 17 15 15 15 15 15 15 15 15 15 15 16 16 16 16 16 15 15 15 15 15 15 15 15 15 15 15 15 15 15 15 15 15 15 15
15 17 18 19 19 19 20 18 19 20 20 19 19 19 16 15 15 15 15 15 15 15 15 15 15 15 15 15 15 15 15 15 15 15 15 15 15 15 15 15 15 15 15 15 15 15 14 14 14
14 17 17 18 19 19 19 18 18 19 20 17 17 19 17 15 15 15 15 14 15 15 15 15 15 15 15 15 15 15 15 15 15 15 15 15 15 15 15 15 15 14 14 14 14 14 14 14 14
13 16 17 18 18 19 18 18 17 16 17 16 16 17 16 15 15 14 14 14 14 15 14 14 14 14 14 14 14 15 15 15 15 15 15 15 14 14 14 14 14 14 14 14 14 14 14 14 14
13 15 17 18 18 18 18 18 17 17 17 17 15 15 15 15 14 14 14 14 14 14 14 14 14 14 14 14 14 14 14 14 14 14 14 14 14 14 14 14 14 14 14 14 13 13 13 13 13
14 15 16 16 16 16 17 17 16 18 19 18 17 15 14 14 14 14 14 14 14 14 14 14 14 14 14 14 14 14 14 14 14 14 14 14 14 14 14 14 13 13 13 13 13 13 13 13 13
14 15 15 15 14 15 16 16 16 17 18 17 16 15 14 14 14 14 14 14 14 14 14 14 14 14 14 14 14 14 14 14 14 14 14 14 14 14 13 13 13 13 13 13 13 13 13 13 12
13 14 14 14 14 14 15 16 16 16 15 15 15 15 14 14 14 14 13 14 14 14 14 14 14 14 14 14 14 14 14 14 14 14 14 14 13 13 13 13 13 13 13 13 12 12 12 12 12
14 13 14 14 14 14 15 15 15 16 14 14 14 14 14 14 14 13 13 13 13 14 14 14 13 13 14 13 13 13 13 13 13 13 13 13 13 13 13 13 13 12 12 12 12 12 12 12 12
12 13 14 14 14 14 15 15 16 14 14 14 14 14 13 13 13 13 13 13 13 13 13 13 13 13 13 13 13 13 13 13 13 13 13 13 13 13 13 12 12 12 12 12 12 12 12 12 11
13 13 13 14 14 14 15 16 16 14 14 14 14 14 13 13 13 13 13 13 13 13 13 13 13 13 13 13 13 12 13 13 13 13 12 12 12 12 12 12 12 12 12 12 11 11 11 11 11
12 13 13 14 14 14 14 15 15 13 13 14 14 13 13 12 12 12 12 13 13 13 13 13 13 12 12 12 12 12 12 12 12 12 12 12 12 12 12 12 12 11 11 11 11 11 11 11 11
12 13 13 14 14 13 14 14 14 13 13 14 14 13 12 12 12 12 12 12 12 13 13 12 12 12 12 12 12 12 12 12 12 12 12 12 12 12 11 11 11 11 11 11 11 11 10 10 10
13 13 13 13 13 13 13 14 14 13 13 13 13 13 12 12 12 12 12 12 12 12 12 12 12 12 12 12 12 11 11 11 11 11 11 11 11 11 11 11 11 11 11 10 10 10 10 10 9
12 12 13 12 12 12 13 13 14 13 13 13 13 12 12 11 11 11 12 12 12 12 12 12 12 12 12 12 12 12 11 11 11 11 11 11 11 11 11 10 10 10 10 10 10 10 9 9 8
11 12 12 12 11 12 12 13 13 13 12 11 11 11 11 11 11 11 11 12 12 12 12 12 12 12 12 11 11 11 11 11 11 11 11 10 10 10 10 10 10 10 10 9 9 9 9 8 8
10 12 12 11 11 12 12 13 14 14 12 12 11 11 11 10 11 11 11 11 11 12 12 12 11 12 11 11 11 11 11 11 11 11 10 10 10 10 10 10 9 9 9 9 9 8 8 7 7
11 11 11 11 11 11 11 12 14 13 13 13 12 11 10 10 10 10 10 11 11 11 11 11 11 11 11 11 11 11 11 11 11 10 10 10 10 9 9 9 9 9 9 8 8 8 7 7 7
10 10 10 11 11 10 12 12 13 14 13 13 12 11 10 9 9 9 10 10 10 11 11 11 11 11 11 11 11 11 11 10 10 10 10 10 9 9 9 9 8 8 8 8 8 7 7 7 6
9 9 9 9 9 11 12 11 13 13 12 12 11 10 9 9 8 9 9 9 10 10 10 11 11 11 10 10 10 10 10 10 10 10 10 9 9 9 9 9 8 8 8 7 7 7 7 6 6
9 10 10 10 10 11 10 11 12 11 10 9 9 8 8 8 8 8 9 9 9 10 10 10 10 10 10 10 10 10 10 10 10 9 9 9 9 9 9 8 8 7 7 7 7 6 6 6 5
8 9 10 10 10 10 11 11 10 9 9 8 8 8 8 7 7 8 8 8 8 9 9 9 10 10 10 10 10 9 9 9 9 9 9 9 8 8 8 8 7 7 7 6 6 6 5 5 5
9 9 9 9 9 10 11 11 12 10 9 8 8 8 7 6 6 7 7 7 7 8 8 8 9 9 9 9 9 9 9 9 9 9 8 8 8 8 8 7 7 7 6 6 6 5 5 5 4
7 8 8 9 10 11 11 12 10 10 9 8 8 6 5 5 5 6 6 6 7 7 7 7 8 8 8 8 8 8 8 8 8 8 8 8 8 7 7 7 7 6 6 5 5 5 4 4 4
8 8 8 8 8 9 11 11 8 8 7 7 6 5 4 4 4 4 5 5 6 6 6 7 7 7 8 8 8 8 8 8 7 7 7 7 7 7 7 6 6 6 5 5 4 4 4 4 3
Wind_Speed
4 3 3 4 6 7 13 9 6 6 6 4 4 5 6 6 3 2 5 10 13 14 16 16 15 15 15 15 15 14 14 14 14 14 14 13 13 13 13 13 13 13 13 14 14 13 13 13 13
4 4 4 5 8 12 11 10 10 8 5 6 5 5 5 4 2 5 7 10 13 14 15 15 16 16 15 15 15 15 14 14 14 14 14 13 13 13 13 13 13 13 13 13 13 13 13 13 13
5 4 5 6 9 14 9 8 9 6 6 6 5 3 2 3 5 5 7 13 14 14 15 16 16 16 16 15 15 14 14 14 14 14 13 13 13 13 13 13 13 12 13 13 12 12 12 12 12
5 5 5 9 15 13 7 5 7 8 7 5 5 5 3 2 3 6 11 14 15 14 15 17 16 16 16 15 15 15 15 14 14 14 14 13 13 13 13 13 13 13 13 13 13 12 12 12 12
4 6 9 12 15 10 7 4 7 9 8 7 7 5 4 3 5 10 13 14 14 14 14 17 16 16 16 15 15 15 15 14 14 14 14 14 13 13 13 13 13 13 13 13 12 12 12 11 11
6 6 11 16 16 10 8 8 7 8 7 7 7 6 4 5 8 11 13 13 13 13 14 16 16 16 16 15 15 15 15 14 14 14 14 14 14 14 13 13 13 13 12 12 12 12 12 11 11
7 8 12 14 14 12 9 8 10 9 9 7 6 6 6 8 9 12 12 12 12 13 13 14 15 15 15 15 15 15 15 14 14 14 14 14 14 13 13 13 12 12 12 12 12 11 11 11 11
5 7 10 11 13 12 8 8 6 9 7 5 5 6 7 10 11 12 12 11 11 11 11 12 13 13 14 14 14 15 15 15 15 15 14 14 13 13 12 12 12 12 11 11 11 11 10 10 9
5 9 13 12 11 8 8 8 5 3 6 5 3 1 6 15 14 14 13 11 11 10 10 11 11 12 12 12 14 14 14 14 14 13 13 10 9 10 10 11 11 11 11 10 9 9 8 8 8
9 12 13 7 6 5 8 8 8 7 9 7 5 5 11 15 16 16 16 15 13 12 11 10 10 11 11 11 11 10 10 10 9 9 9 8 8 8 9 11 10 10 10 9 8 7 6 4 4
10 12 10 7 5 4 6 7 7 9 9 10 10 13 15 16 16 16 15 14 13 12 11 10 9 10 10 9 8 8 8 8 8 8 8 8 7 7 6 6 6 6 6 5 5 4 4 4 4
9 11 9 6 5 5 6 6 7 9 5 3 8 13 16 18 17 16 15 14 13 12 11 10 10 9 9 9 8 8 7 6 6 7 7 6 5 5 5 4 4 4 4 4 4 4 4 4 4
12 9 9 7 5 4 5 7 6 8 4 3 9 13 16 17 16 14 13 12 12 12 11 10 10 10 9 8 7 7 7 7 7 6 5 5 5 4 4 4 4 4 3 3 3 3 3 3 4
11 9 8 8 7 5 6 7 6 7 4 7 10 12 14 15 15 14 13 13 13 12 11 10 10 10 10 8 7 7 7 7 7 6 6 5 5 4 4 4 4 3 3 3 3 3 2 2 3
7 9 10 10 9 6 6 9 10 6 7 9 10 11 12 12 13 14 14 13 13 12 11 11 9 10 10 9 8 7 7 7 6 6 6 6 5 5 4 4 3 3 3 3 2 2 2 2 2
9 10 11 10 11 8 10 14 9 6 9 10 10 10 11 11 12 12 12 12 12 12 12 11 9 10 10 9 8 7 7 7 6 6 6 6 5 5 4 3 3 3 2 2 2 2 2 2 2
10 13 14 9 10 9 11 10 6 6 9 10 10 10 11 10 11 11 11 12 12 12 12 11 10 10 9 9 8 7 7 6 6 6 6 6 5 5 4 3 3 2 2 2 2 2 2 2 2
14 14 14 12 8 11 13 11 6 5 8 10 9 9 10 11 11 10 11 11 11 11 11 11 11 10 10 8 7 6 6 6 5 5 5 6 5 5 4 4 3 2 2 2 1 2 2 2 2
11 13 13 10 5 9 13 13 10 7 8 9 9 9 10 10 10 9 10 10 11 11 12 12 11 11 10 8 8 7 6 5 5 5 5 6 5 5 4 3 2 2 1 1 1 1 2 3 2
11 13 11 6 5 6 8 12 10 9 11 10 11 10 10 9 9 9 10 10 11 12 12 12 12 12 11 8 7 6 6 5 5 5 5 5 5 4 3 3 2 1 1 1 1 1 1 2 3
14 14 12 7 4 4 5 9 12 9 9 9 10 10 10 10 10 11 11 11 11 12 13 12 12 12 11 10 7 7 6 5 4 4 4 4 4 4 3 3 2 1 1 1 1 1 1 1 2
13 11 11 9 8 5 7 8 10 10 10 10 10 10 10 10 10 10 11 11 12 11 11 12 12 12 11 11 10 11 8 7 6 5 5 5 4 4 3 3 2 1 1 0 0 1 1 1 2
9 8 9 10 9 6 8 8 8 8 11 12 11 10 10 9 9 10 10 11 11 10 10 11 12 11 11 11 11 10 8 7 6 6 6 5 4 4 3 3 2 1 1 0 0 1 1 1 2
8 9 6 6 6 9 13 12 9 9 11 10 10 9 9 9 8 8 8 8 8 9 9 10 11 11 11 11 11 10 10 9 9 8 7 5 4 3 3 3 2 1 1 0 0 1 1 2 2
11 11 6 7 8 9 10 10 9 6 6 8 7 7 7 7 7 8 8 8 8 9 10 10 12 12 11 11 11 10 10 10 10 9 7 6 4 4 4 3 2 1 1 1 1 1 1 2 2
15 15 9 8 9 6 8 11 6 1 2 4 4 4 5 6 6 7 8 8 9 9 10 11 12 11 12 11 10 9 9 7 6 7 7 6 5 4 4 3 3 2 2 2 1 1 1 2 2
11 12 6 2 3 5 7 5 5 2 2 2 3 4 4 4 5 6 6 7 8 9 10 11 11 11 11 11 10 9 9 7 7 7 6 5 4 4 4 4 3 3 2 2 2 2 2 2 3
6 9 5 6 7 8 7 8 6 6 4 3 3 3 2 2 4 4 5 6 7 8 8 9 10 10 10 10 9 7 8 7 6 6 6 5 5 4 4 4 3 3 2 2 2 2 2 3 3
7 8 6 6 5 6 7 6 1 3 4 3 2 1 1 2 3 3 4 5 6 7 7 8 8 9 9 9 9 8 7 7 6 5 5 5 4 5 4 4 4 3 3 3 3 3 3 4 4
6 10 9 7 5 5 6 3 2 1 2 3 1 1 1 1 2 3 4 5 6 7 7 7 8 8 8 8 8 7 7 6 6 5 5 5 5 4 4 4 4 3 3 3 3 3 4 4 5
Wind_Direction
228 214 204 199 205 220 229 216 207 182 188 189 178 189 198 190 190 118 108 147 142 143 142 140 135 133 131 128 123 120 117 114 113 111 108 106 103 101 98 96 93 89 88 86 84 81 78 77 75
201 187 195 205 220 218 221 212 204 193 161 153 167 184 185 179 81 101 132 144 144 142 142 140 133 132 130 127 123 121 119 115 113 112 109 107 103 100 98 95 91 89 88 86 84 81 79 78 76
184 209 202 203 221 224 216 197 199 170 162 174 168 179 184 142 125 126 136 146 144 141 139 133 132 130 128 127 124 121 118 116 114 111 109 106 102 99 97 94 91 89 87 85 84 83 81 78 75
185 187 207 222 222 223 226 166 168 167 171 185 177 155 138 81 118 130 140 147 143 140 137 133 132 129 126 126 124 122 119 116 113 110 108 104 101 99 96 94 91 88 86 86 84 82 80 78 75
206 198 206 221 225 220 220 193 175 180 175 177 185 166 140 106 121 134 143 147 143 139 135 134 131 128 126 125 125 123 120 116 113 109 105 100 98 96 95 93 90 88 86 84 82 80 78 76 74
190 206 215 219 218 216 212 197 187 194 182 175 181 168 136 129 140 141 145 146 141 137 134 134 130 127 126 124 123 121 119 117 114 111 106 101 97 96 94 92 90 88 86 85 82 79 76 74 72
206 206 223 222 219 218 207 191 203 197 192 184 176 165 145 150 144 143 143 141 138 137 137 138 138 132 126 123 123 121 118 114 111 107 103 100 97 95 92 90 89 88 87 86 82 78 75 73 71
225 214 221 219 218 217 191 185 206 208 195 157 182 181 163 159 147 143 140 139 137 140 142 141 141 139 137 131 121 118 114 111 107 103 100 98 97 93 89 89 86 85 86 84 82 78 74 72 70
208 219 220 215 215 208 180 186 182 192 168 166 183 130 129 142 147 147 145 145 145 145 146 144 142 139 136 133 127 121 115 111 110 105 102 104 104 98 93 85 84 83 83 82 80 78 76 75 72
204 223 221 215 215 199 181 193 176 177 186 189 178 143 137 150 159 162 163 161 159 155 152 149 145 141 137 133 134 130 125 122 119 118 115 108 101 95 93 88 85 82 82 80 76 77 76 67 66
205 225 220 216 220 214 191 192 184 191 200 203 191 169 159 165 170 173 172 168 164 158 153 151 148 146 142 137 134 130 124 121 118 119 116 110 104 103 98 94 90 85 80 75 74 69 59 52 47
210 223 219 211 210 212 202 190 197 212 219 197 181 166 168 175 179 179 176 170 164 161 158 154 151 147 144 140 136 134 131 128 123 122 121 118 111 105 99 91 82 76 70 66 60 54 55 52 47
215 215 216 219 217 222 211 213 220 226 245 185 163 168 177 181 182 181 176 171 167 165 160 157 154 150 145 139 137 136 133 131 125 122 120 120 117 110 103 93 84 74 67 64 57 54 50 47 43
213 214 213 214 217 219 218 230 231 230 201 174 173 180 185 186 184 180 179 177 174 171 166 160 159 153 148 143 142 136 132 128 126 122 121 118 115 113 108 98 83 72 61 53 48 45 43 39 37
197 208 219 220 216 210 214 233 226 222 195 186 186 187 187 189 187 188 186 183 178 173 168 165 161 156 152 146 142 136 133 132 128 123 122 118 116 116 110 100 89 72 63 59 51 47 36 32 25
191 205 215 212 208 206 212 233 216 203 199 201 197 193 191 193 195 195 190 186 180 174 170 167 163 160 154 146 142 137 136 134 129 126 123 119 117 117 110 101 89 75 66 58 48 33 25 13 1
195 210 212 204 200 196 210 235 213 201 203 207 204 200 197 194 198 197 193 188 182 177 172 168 165 162 155 146 140 135 133 132 129 127 123 122 120 119 111 101 93 83 69 56 42 25 7 355 346
197 205 206 206 191 202 214 228 215 204 207 210 207 203 201 203 202 197 193 187 182 178 172 168 165 163 154 146 140 133 131 131 129 128 128 129 125 122 113 106 99 88 77 55 41 33 14 352 333
202 204 208 207 190 205 219 230 231 219 214 216 213 208 206 208 203 193 190 184 180 178 175 172 168 167 162 158 157 154 153 147 138 131 134 134 131 127 120 115 108 91 79 54 35 31 20 3 340
206 206 206 191 174 207 226 240 237 229 225 223 219 214 210 205 200 194 190 184 184 183 181 178 176 173 172 170 165 161 150 147 140 135 132 134 133 133 131 127 123 106 90 68 40 20 2 358 350
213 210 202 188 171 203 223 243 229 224 226 228 226 222 215 208 203 197 193 190 188 188 186 183 180 177 176 168 155 143 138 139 148 152 145 141 142 139 135 133 126 114 101 82 27 3 345 340 348
213 209 202 188 188 207 207 236 225 213 217 222 221 219 217 213 208 200 196 194 192 191 187 185 180 178 175 170 169 168 170 171 174 167 160 153 152 146 139 136 131 124 116 124 336 319 302 289 310
204 185 193 196 205 221 213 232 231 201 222 221 216 217 217 213 209 202 198 197 194 186 183 183 179 178 176 176 176 177 176 172 163 160 161 159 154 153 149 145 141 134 129 138 290 292 284 285 285
169 159 164 186 205 226 214 219 236 211 216 211 209 212 213 212 207 205 198 191 186 178 177 177 177 177 176 177 178 178 173 169 164 166 166 166 164 162 160 162 159 156 146 181 266 274 274 279 279
179 162 167 189 205 225 193 214 238 222 218 218 213 212 208 204 201 195 190 185 180 177 176 176 175 176 176 177 179 179 175 173 175 173 173 171 172 176 180 177 182 179 183 206 231 253 268 273 274
190 186 191 195 204 205 191 219 226 224 236 227 220 214 209 201 199 196 190 186 181 179 176 176 176 176 176 176 177 176 174 175 175 177 176 178 181 183 182 187 193 197 202 211 223 244 262 271 272
182 200 212 200 182 202 204 223 247 210 185 180 195 196 199 201 196 194 189 187 182 179 178 177 174 173 175 176 173 173 175 175 174 176 178 180 179 176 181 187 193 200 206 216 231 243 259 269 274
198 176 179 191 190 211 211 220 213 183 186 174 174 190 190 189 188 184 184 182 179 177 174 174 173 172 172 172 172 172 174 175 173 174 177 180 179 174 180 187 193 200 207 218 231 247 260 268 274
168 184 195 194 225 214 212 210 183 206 202 203 198 167 206 193 179 173 168 168 165 163 164 166 167 166 167 169 169 168 170 170 170 172 177 181 180 179 183 189 195 202 212 224 234 248 261 266 274
200 195 191 194 204 223 225 209 72 186 185 188 172 114 113 141 151 146 144 149 153 154 157 161 163 164 166 167 165 166 165 166 169 173 177 181 183 184 186 192 197 206 219 231 240 248 259 265 273
Height
1508 1510 1513 1516 1516 1510 1502 1498 1499 1502 1504 1506 1507 1507 1505 1506 1509 1515 1516 1516 1519 1522 1525 1527 1530 1532 1534 1535 1537 1538 1539 1540 1541 1541 1542 1542 1543 1543 1543 1543 1544 1544 1544 1544 1544 1543 1543 1543 1543
1508 1511 1515 1515 1509 1505 1499 1496 1499 1500 1503 1507 1508 1508 1508 1509 1512 1513 1513 1516 1519 1522 1525 1528 1530 1533 1535 1536 1538 1539 1540 1541 1541 1542 1543 1543 1544 1544 1544 1545 1545 1545 1545 1545 1544 1544 1544 1544 1543
1508 1510 1514 1509 1503 1497 1493 1495 1496 1502 1505 1506 1507 1508 1509 1510 1512 1512 1513 1516 1520 1523 1526 1528 1531 1533 1535 1537 1538 1539 1541 1542 1542 1543 1544 1544 1545 1545 1545 1545 1546 1546 1546 1545 1545 1545 1545 1544 1544
1508 1512 1511 1505 1498 1493 1492 1495 1498 1501 1505 1506 1506 1508 1510 1511 1511 1512 1513 1517 1521 1524 1527 1529 1532 1534 1536 1537 1539 1540 1541 1542 1543 1544 1545 1545 1546 1546 1546 1546 1546 1546 1546 1546 1546 1546 1545 1545 1544
1507 1508 1504 1500 1495 1493 1496 1498 1500 1499 1501 1504 1506 1506 1509 1510 1510 1512 1514 1518 1521 1525 1527 1530 1532 1535 1536 1538 1539 1541 1542 1543 1544 1545 1546 1546 1547 1547 1547 1547 1547 1547 1547 1547 1547 1546 1546 1546 1545
1506 1503 1498 1495 1492 1493 1496 1499 1500 1499 1501 1504 1505 1506 1508 1509 1510 1513 1515 1519 1522 1525 1528 1530 1533 1535 1537 1539 1540 1542 1543 1544 1545 1546 1546 1547 1547 1548 1548 1548 1548 1548 1547 1547 1547 1547 1546 1546 1545
1503 1498 1492 1489 1490 1491 1494 1497 1498 1498 1500 1502 1504 1505 1508 1509 1511 1513 1516 1519 1523 1525 1528 1531 1533 1535 1537 1539 1541 1542 1543 1544 1545 1546 1547 1547 1548 1548 1548 1548 1548 1548 1548 1548 1548 1547 1547 1546 1546
1500 1497 1492 1490 1489 1489 1493 1496 1497 1498 1499 1502 1504 1504 1506 1509 1510 1513 1516 1519 1523 1525 1528 1530 1533 1535 1537 1539 1541 1542 1544 1545 1546 1547 1547 1548 1548 1548 1548 1549 1549 1548 1548 1548 1548 1547 1547 1546 1546
1499 1497 1489 1488 1488 1488 1492 1494 1497 1498 1500 1501 1502 1503 1505 1506 1509 1513 1516 1519 1522 1525 1528 1530 1533 1535 1537 1539 1541 1542 1544 1545 1546 1547 1547 1548 1548 1549 1549 1549 1549 1549 1548 1548 1548 1547 1547 1546 1545
1496 1491 1485 1487 1488 1488 1491 1492 1495 1497 1498 1500 1501 1502 1503 1505 1509 1512 1515 1518 1521 1524 1527 1529 1532 1534 1536 1538 1540 1542 1543 1545 1546 1547 1547 1548 1548 1548 1548 1549 1549 1549 1548 1548 1548 1547 1547 1546 1545
1491 1487 1487 1489 1490 1490 1491 1492 1494 1494 1494 1495 1498 1500 1502 1505 1508 1512 1515 1517 1520 1523 1526 1529 1531 1533 1536 1538 1540 1542 1543 1544 1545 1546 1547 1548 1548 1548 1548 1549 1549 1549 1548 1548 1547 1547 1546 1546 1545
1488 1487 1488 1488 1490 1490 1490 1492 1493 1493 1493 1495 1497 1498 1500 1504 1507 1510 1513 1517 1519 1522 1525 1528 1530 1533 1535 1537 1539 1541 1543 1544 1545 1546 1546 1547 1548 1548 1548 1548 1548 1548 1548 1547 1547 1546 1546 1545 1544
1486 1486 1487 1489 1490 1490 1490 1491 1491 1492 1493 1493 1495 1498 1500 1503 1506 1510 1513 1516 1518 1521 1523 1526 1529 1532 1534 1536 1539 1540 1542 1543 1544 1545 1546 1547 1547 1548 1548 1548 1548 1548 1547 1547 1546 1546 1545 1544 1543
1483 1485 1486 1487 1488 1489 1489 1490 1491 1490 1491 1493 1494 1496 1499 1501 1504 1508 1511 1513 1516 1519 1522 1525 1528 1531 1533 1536 1538 1540 1541 1542 1544 1545 1545 1546 1547 1547 1547 1547 1547 1547 1547 1546 1546 1545 1544 1543 1542
1483 1484 1484 1485 1486 1487 1489 1487 1487 1489 1490 1492 1493 1495 1498 1500 1503 1505 1508 1512 1515 1518 1521 1524 1527 1529 1532 1535 1537 1539 1540 1542 1543 1544 1545 1545 1546 1546 1547 1546 1546 1546 1546 1545 1545 1544 1543 1541 1540
1480 1481 1480 1479 1483 1485 1488 1481 1483 1487 1488 1490 1492 1494 1496 1498 1501 1504 1507 1510 1513 1516 1519 1522 1525 1528 1531 1533 1535 1537 1539 1541 1542 1543 1544 1544 1545 1545 1546 1546 1545 1545 1545 1544 1543 1542 1541 1540 1539
1476 1474 1474 1476 1479 1481 1483 1479 1481 1484 1486 1487 1489 1491 1494 1496 1499 1501 1504 1507 1511 1514 1517 1520 1523 1526 1529 1531 1534 1536 1538 1539 1541 1542 1543 1543 1544 1544 1545 1545 1544 1544 1544 1543 1542 1541 1540 1538 1537
1468 1468 1471 1472 1475 1479 1479 1478 1480 1483 1484 1485 1487 1489 1491 1493 1496 1499 1502 1505 1508 1511 1515 1518 1521 1524 1527 1529 1532 1534 1536 1538 1539 1540 1541 1542 1543 1543 1543 1543 1543 1543 1542 1542 1541 1539 1538 1537 1535
1464 1467 1468 1470 1475 1478 1476 1476 1477 1481 1483 1483 1485 1486 1488 1490 1494 1496 1499 1502 1505 1509 1512 1515 1518 1521 1524 1527 1529 1532 1534 1536 1538 1539 1540 1541 1541 1542 1542 1542 1542 1541 1541 1540 1539 1538 1536 1535 1533
1466 1466 1467 1472 1476 1477 1476 1475 1475 1478 1479 1480 1482 1483 1486 1488 1491 1493 1496 1499 1502 1505 1509 1512 1515 1518 1522 1525 1528 1530 1532 1534 1536 1537 1538 1539 1540 1540 1540 1540 1540 1540 1539 1538 1537 1536 1534 1533 1531
1465 1465 1466 1470 1476 1476 1477 1473 1471 1474 1476 1478 1479 1481 1483 1484 1486 1489 1492 1495 1498 1502 1505 1508 1512 1515 1519 1522 1525 1528 1530 1532 1534 1535 1536 1537 1538 1538 1539 1539 1538 1538 1537 1536 1535 1534 1533 1531 1530
1463 1464 1467 1470 1472 1472 1474 1468 1462 1466 1471 1474 1475 1477 1479 1481 1483 1485 1488 1491 1494 1498 1502 1505 1509 1512 1515 1519 1522 1524 1526 1528 1530 1532 1534 1535 1535 1536 1536 1536 1536 1536 1535 1534 1533 1532 1531 1530 1528
1461 1465 1467 1469 1470 1474 1473 1472 1457 1464 1465 1467 1470 1472 1475 1477 1479 1481 1484 1487 1491 1494 1498 1501 1505 1509 1512 1515 1519 1522 1524 1526 1528 1530 1531 1532 1533 1534 1534 1534 1534 1533 1533 1532 1531 1530 1529 1527 1526
1462 1466 1469 1470 1471 1474 1465 1466 1455 1455 1456 1460 1465 1468 1471 1473 1475 1478 1481 1484 1487 1490 1494 1497 1501 1505 1508 1512 1515 1518 1521 1523 1525 1526 1528 1529 1530 1531 1531 1531 1531 1531 1530 1529 1529 1527 1526 1525 1524
1459 1462 1469 1472 1471 1462 1459 1462 1453 1451 1456 1459 1462 1465 1468 1470 1472 1474 1477 1479 1482 1486 1489 1493 1497 1501 1504 1508 1511 1514 1517 1520 1521 1523 1525 1526 1527 1528 1528 1528 1528 1528 1527 1527 1526 1525 1524 1522 1521
1454 1453 1456 1457 1456 1453 1463 1456 1451 1456 1459 1460 1462 1464 1465 1467 1469 1471 1473 1476 1478 1482 1485 1489 1493 1497 1500 1504 1507 1511 1514 1516 1518 1520 1522 1523 1524 1525 1525 1525 1525 1525 1525 1524 1523 1522 1521 1519 1518
1453 1452 1451 1453 1454 1456 1452 1453 1454 1457 1458 1460 1461 1462 1463 1465 1466 1468 1470 1473 1475 1478 1482 1485 1489 1493 1496 1500 1504 1507 1510 1512 1514 1516 1518 1520 1521 1521 1522 1522 1522 1522 1521 1521 1520 1519 1518 1516 1515
1450 1451 1456 1456 1454 1448 1446 1447 1443 1452 1455 1458 1459 1460 1462 1463 1464 1466 1468 1470 1472 1475 1479 1482 1486 1489 1493 1496 1500 1503 1506 1508 1511 1513 1514 1516 1517 1518 1518 1518 1519 1518 1518 1517 1517 1516 1514 1513 1512
1451 1454 1452 1450 1448 1443 1443 1442 1446 1449 1453 1456 1458 1460 1461 1462 1463 1464 1465 1467 1470 1473 1476 1479 1482 1486 1489 1493 1496 1499 1502 1504 1507 1509 1511 1512 1513 1514 1514 1515 1515 1515 1514 1514 1513 1512 1511 1510 1508
1447 1447 1449 1450 1453 1446 1439 1445 1451 1452 1455 1457 1458 1460 1460 1461 1462 1462 1464 1466 1468 1470 1473 1476 1479 1483 1486 1489 1493 1496 1498 1501 1503 1505 1507 1508 1509 1510 1511 1511 1511 1511 1511 1510 1509 1508 1507 1506 1505